| time (UTC) | temp F | wind direction | speed MPH | gust MPH | rain 1hr in | rain 24hr in | rain mn in | humidity % | barometer mb |
| 20260506084026 | 54 | 310 | 2.0 | 13.0 | 0.00 | 0.00 | 0.00 | 68 | 1012.4 |
| 20260506083524 | 54 | 298 | 5.0 | 13.0 | 0.00 | 0.00 | 0.00 | 67 | 1012.3 |
| 20260506083040 | 53 | 328 | 2.0 | 11.0 | 0.00 | 0.00 | 0.00 | 67 | 1012.4 |
| 20260506082523 | 53 | 292 | 3.0 | 11.0 | 0.00 | 0.00 | 0.00 | 68 | 1012.4 |
| 20260506082023 | 53 | 9 | 2.0 | 11.0 | 0.00 | 0.00 | 0.00 | 70 | 1012.4 |
| 20260506081541 | 53 | 334 | 4.0 | 11.0 | 0.00 | 0.00 | 0.00 | 70 | 1012.3 |
| 20260506081023 | 52 | 61 | 2.0 | 10.0 | 0.00 | 0.00 | 0.00 | 71 | 1012.3 |
| 20260506080523 | 52 | 51 | 3.0 | 10.0 | 0.00 | 0.00 | 0.00 | 71 | 1012.4 |
| 20260506073524 | 51 | 307 | 1.0 | 9.0 | 0.00 | 0.00 | 0.00 | 75 | 1012.2 |
| 20260506073046 | 51 | 9 | 2.0 | 9.0 | 0.00 | 0.00 | 0.00 | 77 | 1012.2 |
| 20260506072526 | 50 | 146 | 2.0 | 8.0 | 0.00 | 0.00 | 0.00 | 77 | 1012.2 |
| 20260506072026 | 50 | 111 | 2.0 | 8.0 | 0.00 | 0.00 | 0.00 | 77 | 1012.2 |
| 20260506071542 | 50 | 9 | 2.0 | 7.0 | 0.00 | 0.00 | 0.00 | 78 | 1012.1 |
| 20260506071025 | 49 | 329 | 2.0 | 9.0 | 0.00 | 0.00 | 0.00 | 79 | 1012.1 |
| 20260506070524 | 49 | 305 | 2.0 | 9.0 | 0.00 | 0.00 | 0.00 | 79 | 1012.2 |
| 20260506062023 | 48 | 61 | 1.0 | 6.0 | 0.00 | 0.00 | 0.00 | 82 | 1012.2 |
| 20260506061537 | 48 | 325 | 1.0 | 5.0 | 0.00 | 0.00 | 0.00 | 83 | 1012.1 |
| 20260506061022 | 48 | 0 | 1.0 | 5.0 | 0.00 | 0.00 | 0.00 | 83 | 1012.2 |
| 20260506060522 | 47 | 292 | 1.0 | 5.0 | 0.00 | 0.00 | 0.00 | 84 | 1012.1 |
| 20260506051025 | 46 | 9 | 1.0 | 5.0 | 0.00 | 0.00 | 0.00 | 88 | 1012.1 |
| 20260506050526 | 46 | 193 | 1.0 | 7.0 | 0.00 | 0.00 | 0.00 | 88 | 1012.0 |
| 20260506045027 | 46 | 51 | 1.0 | 6.0 | 0.00 | 0.00 | 0.00 | 88 | 1012.0 |
| 20260506044547 | 46 | 25 | 2.0 | 6.0 | 0.00 | 0.00 | 0.00 | 88 | 1011.9 |
| 20260506044026 | 46 | 279 | 1.0 | 5.0 | 0.00 | 0.00 | 0.00 | 88 | 1011.9 |
| 20260506043525 | 46 | 309 | 1.0 | 5.0 | 0.00 | 0.00 | 0.00 | 87 | 1011.8 |
| 20260506043040 | 46 | 286 | 1.0 | 6.0 | 0.00 | 0.00 | 0.00 | 87 | 1011.7 |
| 20260506042523 | 46 | 51 | 1.0 | 6.0 | 0.00 | 0.00 | 0.00 | 87 | 1011.8 |
| 20260506042023 | 46 | 178 | 1.0 | 6.0 | 0.00 | 0.00 | 0.00 | 87 | 1011.6 |
| 20260506041539 | 46 | 205 | 1.0 | 8.0 | 0.00 | 0.00 | 0.00 | 87 | 1011.8 |
| 20260506041025 | 46 | 93 | 1.0 | 8.0 | 0.00 | 0.00 | 0.00 | 87 | 1011.7 |
| 20260506040525 | 46 | 9 | 2.0 | 8.0 | 0.00 | 0.00 | 0.00 | 87 | 1011.7 |
| 20260506040055 | 46 | 347 | 1.0 | 6.0 | 0.00 | 0.00 | 0.00 | 87 | 1011.6 |
| 20260506035526 | 46 | 162 | 1.0 | 6.0 | 0.00 | 0.00 | 0.00 | 87 | 1011.6 |
| 20260506035027 | 46 | 249 | 1.0 | 6.0 | 0.00 | 0.00 | 0.00 | 86 | 1011.6 |
| 20260506034537 | 46 | 221 | 1.0 | 7.0 | 0.00 | 0.00 | 0.00 | 86 | 1011.6 |
| 20260506034024 | 46 | 196 | 1.0 | 7.0 | 0.00 | 0.00 | 0.00 | 86 | 1011.6 |
| 20260506033522 | 46 | 34 | 1.0 | 6.0 | 0.00 | 0.00 | 0.00 | 86 | 1011.6 |
| 20260506033036 | 47 | 287 | 1.0 | 6.0 | 0.00 | 0.00 | 0.00 | 86 | 1011.5 |
| 20260506032523 | 47 | 51 | 1.0 | 5.0 | 0.00 | 0.00 | 0.00 | 86 | 1011.6 |
| 20260506032023 | 47 | 314 | 1.0 | 5.0 | 0.00 | 0.00 | 0.00 | 86 | 1011.6 |
| 20260506031551 | 47 | 41 | 1.0 | 5.0 | 0.00 | 0.00 | 0.00 | 85 | 1011.6 |
| 20260506031030 | 47 | 0 | 1.0 | 4.0 | 0.00 | 0.00 | 0.00 | 85 | 1011.6 |
| 20260506030522 | 47 | 279 | 1.0 | 6.0 | 0.00 | 0.00 | 0.00 | 85 | 1011.6 |
| 20260506030041 | 47 | 0 | 1.0 | 6.0 | 0.00 | 0.00 | 0.00 | 85 | 1011.6 |
| 20260506025522 | 47 | 48 | 2.0 | 5.0 | 0.00 | 0.00 | 0.00 | 84 | 1011.6 |
| 20260506025022 | 47 | 316 | 1.0 | 6.0 | 0.00 | 0.00 | 0.00 | 84 | 1011.8 |
| 20260506024540 | 47 | 46 | 2.0 | 6.0 | 0.00 | 0.00 | 0.00 | 85 | 1011.8 |
| 20260506024022 | 47 | 282 | 1.0 | 5.0 | 0.00 | 0.00 | 0.00 | 85 | 1011.8 |
| 20260506023526 | 48 | 126 | 1.0 | 5.0 | 0.00 | 0.00 | 0.00 | 84 | 1011.7 |
| 20260506023037 | 48 | 80 | 1.0 | 5.0 | 0.00 | 0.00 | 0.00 | 84 | 1011.7 |
| 20260506022523 | 48 | 0 | 1.0 | 4.0 | 0.00 | 0.00 | 0.00 | 85 | 1011.7 |
| 20260506022025 | 48 | 9 | 1.0 | 4.0 | 0.00 | 0.00 | 0.00 | 85 | 1011.8 |
| 20260506021536 | 48 | 43 | 1.0 | 5.0 | 0.00 | 0.00 | 0.00 | 85 | 1011.7 |
| 20260506021028 | 48 | 51 | 1.0 | 5.0 | 0.00 | 0.00 | 0.00 | 86 | 1011.8 |
| 20260506020527 | 49 | 296 | 1.0 | 5.0 | 0.00 | 0.00 | 0.00 | 86 | 1011.8 |
| 20260506020035 | 49 | 34 | 1.0 | 6.0 | 0.00 | 0.00 | 0.00 | 86 | 1011.8 |
| 20260506015526 | 49 | 51 | 1.0 | 6.0 | 0.00 | 0.00 | 0.00 | 86 | 1011.8 |
| 20260506015023 | 49 | 232 | 0.0 | 5.0 | 0.00 | 0.00 | 0.00 | 86 | 1011.8 |
| 20260506014543 | 49 | 0 | 1.0 | 6.0 | 0.00 | 0.00 | 0.00 | 86 | 1011.8 |
| 20260506014022 | 49 | 44 | 1.0 | 7.0 | 0.00 | 0.00 | 0.00 | 86 | 1011.8 |
| 20260506013522 | 49 | 31 | 2.0 | 7.0 | 0.00 | 0.00 | 0.00 | 86 | 1011.7 |
| 20260506013039 | 49 | 93 | 1.0 | 5.0 | 0.00 | 0.00 | 0.00 | 86 | 1011.7 |
| 20260506012524 | 49 | 0 | 1.0 | 6.0 | 0.00 | 0.00 | 0.00 | 85 | 1011.8 |
| 20260506012111 | 49 | 310 | 1.0 | 6.0 | 0.00 | 0.00 | 0.00 | 85 | 1011.7 |
| 20260506011539 | 49 | 330 | 1.0 | 4.0 | 0.00 | 0.00 | 0.00 | 85 | 1011.8 |
| 20260506011023 | 49 | 0 | 1.0 | 6.0 | 0.00 | 0.00 | 0.00 | 85 | 1011.8 |
| 20260506010526 | 49 | 51 | 1.0 | 6.0 | 0.00 | 0.00 | 0.00 | 85 | 1011.9 |
| 20260506010042 | 49 | 19 | 1.0 | 5.0 | 0.00 | 0.00 | 0.00 | 85 | 1011.9 |
| 20260506005523 | 49 | 332 | 1.0 | 6.0 | 0.00 | 0.00 | 0.00 | 84 | 1011.9 |
| 20260506005023 | 49 | 65 | 1.0 | 6.0 | 0.00 | 0.00 | 0.00 | 84 | 1011.8 |
| 20260506004537 | 49 | 334 | 1.0 | 6.0 | 0.00 | 0.00 | 0.00 | 84 | 1011.9 |
| 20260506004029 | 49 | 55 | 1.0 | 7.0 | 0.00 | 0.00 | 0.00 | 84 | 1011.9 |
| 20260506003524 | 49 | 0 | 1.0 | 7.0 | 0.00 | 0.00 | 0.00 | 84 | 1011.9 |
| 20260506003042 | 49 | 309 | 1.0 | 4.0 | 0.00 | 0.00 | 0.00 | 84 | 1011.8 |
| 20260506002522 | 49 | 292 | 1.0 | 6.0 | 0.00 | 0.00 | 0.00 | 84 | 1011.9 |
| 20260506002022 | 49 | 137 | 1.0 | 6.0 | 0.00 | 0.00 | 0.00 | 84 | 1012.0 |
| 20260506001541 | 49 | 325 | 1.0 | 6.0 | 0.00 | 0.00 | 0.00 | 84 | 1011.9 |
| 20260506001023 | 49 | 24 | 1.0 | 6.0 | 0.00 | 0.00 | 0.00 | 84 | 1011.9 |
| 20260506000523 | 49 | 68 | 1.0 | 6.0 | 0.00 | 0.00 | 0.00 | 83 | 1011.9 |
| 20260506000038 | 49 | 51 | 1.0 | 7.0 | 0.00 | 0.00 | 0.00 | 83 | 1011.9 |
| 20260505235525 | 49 | 34 | 2.0 | 7.0 | 0.00 | 0.00 | 0.00 | 82 | 1011.9 |
| 20260505235022 | 49 | 86 | 2.0 | 5.0 | 0.00 | 0.00 | 0.00 | 82 | 1011.9 |
| 20260505234545 | 49 | 51 | 1.0 | 5.0 | 0.00 | 0.00 | 0.00 | 81 | 1011.9 |
| 20260505234022 | 49 | 120 | 1.0 | 4.0 | 0.00 | 0.00 | 0.00 | 80 | 1012.0 |
| 20260505233522 | 50 | 336 | 1.0 | 5.0 | 0.00 | 0.00 | 0.00 | 79 | 1012.0 |
| 20260505233035 | 50 | 57 | 1.0 | 5.0 | 0.00 | 0.00 | 0.00 | 79 | 1012.0 |
| 20260505232522 | 50 | 0 | 1.0 | 5.0 | 0.00 | 0.00 | 0.00 | 78 | 1012.0 |
| 20260505232026 | 50 | 32 | 1.0 | 5.0 | 0.00 | 0.00 | 0.00 | 78 | 1012.1 |
| 20260505231545 | 50 | 300 | 1.0 | 7.0 | 0.00 | 0.00 | 0.00 | 78 | 1012.1 |
| 20260505231025 | 50 | 51 | 1.0 | 9.0 | 0.00 | 0.00 | 0.00 | 77 | 1012.1 |
| 20260505230522 | 50 | 153 | 1.0 | 9.0 | 0.00 | 0.00 | 0.00 | 76 | 1012.2 |
| 20260505230035 | 50 | 63 | 2.0 | 9.0 | 0.00 | 0.00 | 0.00 | 76 | 1012.2 |
| 20260505225527 | 50 | 28 | 2.0 | 5.0 | 0.00 | 0.00 | 0.00 | 76 | 1012.2 |
| 20260505225023 | 50 | 44 | 1.0 | 5.0 | 0.00 | 0.00 | 0.00 | 75 | 1012.2 |
| 20260505224541 | 50 | 68 | 2.0 | 6.0 | 0.00 | 0.00 | 0.00 | 75 | 1012.2 |
| 20260505224026 | 50 | 316 | 1.0 | 6.0 | 0.00 | 0.00 | 0.00 | 74 | 1012.2 |
| 20260505223525 | 50 | 205 | 1.0 | 6.0 | 0.00 | 0.00 | 0.00 | 74 | 1012.1 |
| 20260505223049 | 50 | 221 | 1.0 | 6.0 | 0.00 | 0.00 | 0.00 | 73 | 1012.2 |
| 20260505222530 | 50 | 46 | 1.0 | 6.0 | 0.00 | 0.00 | 0.00 | 73 | 1012.2 |
| 20260505222022 | 50 | 0 | 1.0 | 5.0 | 0.00 | 0.00 | 0.00 | 73 | 1012.2 |
| 20260505221539 | 50 | 0 | 1.0 | 6.0 | 0.00 | 0.00 | 0.00 | 72 | 1012.3 |
| 20260505221026 | 51 | 309 | 1.0 | 6.0 | 0.00 | 0.00 | 0.00 | 72 | 1012.3 |
| 20260505220522 | 51 | 80 | 1.0 | 6.0 | 0.00 | 0.00 | 0.00 | 71 | 1012.4 |
| 20260505220041 | 51 | 22 | 1.0 | 6.0 | 0.00 | 0.00 | 0.00 | 71 | 1012.4 |
| 20260505215522 | 51 | 44 | 1.0 | 6.0 | 0.00 | 0.00 | 0.00 | 71 | 1012.4 |
| 20260505215026 | 51 | 51 | 1.0 | 6.0 | 0.00 | 0.00 | 0.00 | 71 | 1012.4 |
| 20260505214547 | 51 | 244 | 2.0 | 6.0 | 0.00 | 0.00 | 0.00 | 70 | 1012.4 |
| 20260505214027 | 51 | 59 | 1.0 | 5.0 | 0.00 | 0.00 | 0.00 | 71 | 1012.4 |
| 20260505213522 | 52 | 9 | 1.0 | 6.0 | 0.00 | 0.00 | 0.00 | 70 | 1012.3 |
| 20260505213036 | 52 | 41 | 1.0 | 6.0 | 0.00 | 0.00 | 0.00 | 69 | 1012.3 |
| 20260505212522 | 52 | 137 | 1.0 | 5.0 | 0.00 | 0.00 | 0.00 | 68 | 1012.2 |
| 20260505212024 | 52 | 21 | 1.0 | 7.0 | 0.00 | 0.00 | 0.00 | 68 | 1012.3 |
| 20260505211541 | 52 | 19 | 2.0 | 7.0 | 0.00 | 0.00 | 0.00 | 67 | 1012.4 |
| 20260505211026 | 52 | 325 | 1.0 | 7.0 | 0.00 | 0.00 | 0.00 | 67 | 1012.4 |
| 20260505210525 | 52 | 56 | 2.0 | 6.0 | 0.00 | 0.00 | 0.00 | 67 | 1012.4 |
| 20260505210039 | 52 | 196 | 1.0 | 6.0 | 0.00 | 0.00 | 0.00 | 69 | 1012.3 |
| 20260505205522 | 52 | 51 | 1.0 | 4.0 | 0.00 | 0.00 | 0.00 | 70 | 1012.3 |
| 20260505205022 | 52 | 0 | 0.0 | 4.0 | 0.00 | 0.00 | 0.00 | 70 | 1012.3 |
| 20260505204540 | 53 | 80 | 1.0 | 4.0 | 0.00 | 0.00 | 0.00 | 70 | 1012.3 |
| 20260505204024 | 53 | 56 | 1.0 | 7.0 | 0.00 | 0.00 | 0.00 | 69 | 1012.2 |
| 20260505203526 | 53 | 332 | 1.0 | 7.0 | 0.00 | 0.00 | 0.00 | 69 | 1012.2 |
| 20260505203035 | 53 | 0 | 1.0 | 5.0 | 0.00 | 0.00 | 0.00 | 70 | 1012.2 |
| 20260505202523 | 53 | 26 | 1.0 | 5.0 | 0.00 | 0.00 | 0.00 | 70 | 1012.2 |
| 20260505202023 | 53 | 54 | 1.0 | 4.0 | 0.00 | 0.00 | 0.00 | 69 | 1012.1 |
| 20260505201542 | 53 | 338 | 1.0 | 6.0 | 0.00 | 0.00 | 0.00 | 69 | 1012.1 |
| 20260505201022 | 54 | 334 | 1.0 | 6.0 | 0.00 | 0.00 | 0.00 | 69 | 1012.0 |
| 20260505200523 | 54 | 178 | 1.0 | 5.0 | 0.00 | 0.00 | 0.00 | 68 | 1012.0 |
| 20260505200044 | 54 | 93 | 1.0 | 4.0 | 0.00 | 0.00 | 0.00 | 68 | 1012.0 |
| 20260505195527 | 54 | 142 | 1.0 | 4.0 | 0.00 | 0.00 | 0.00 | 68 | 1011.9 |
| 20260505195022 | 54 | 66 | 1.0 | 3.0 | 0.00 | 0.00 | 0.00 | 68 | 1011.8 |
| 20260505194540 | 54 | 325 | 1.0 | 3.0 | 0.00 | 0.00 | 0.00 | 68 | 1011.7 |
| 20260505194023 | 54 | 137 | 1.0 | 4.0 | 0.00 | 0.00 | 0.00 | 67 | 1011.6 |
| 20260505193522 | 55 | 44 | 1.0 | 4.0 | 0.00 | 0.00 | 0.00 | 67 | 1011.6 |
| 20260505193038 | 55 | 44 | 1.0 | 4.0 | 0.00 | 0.00 | 0.00 | 67 | 1011.5 |
| 20260505192526 | 55 | 41 | 0.0 | 2.0 | 0.00 | 0.00 | 0.00 | 68 | 1011.5 |
| 20260505192024 | 55 | 0 | 0.0 | 2.0 | 0.00 | 0.00 | 0.00 | 67 | 1011.4 |
| 20260505191537 | 55 | 26 | 0.0 | 3.0 | 0.00 | 0.00 | 0.00 | 66 | 1011.5 |
| 20260505191023 | 55 | 0 | 1.0 | 3.0 | 0.00 | 0.00 | 0.00 | 66 | 1011.5 |
| 20260505190523 | 55 | 0 | 0.0 | 3.0 | 0.00 | 0.00 | 0.00 | 66 | 1011.5 |
| 20260505185526 | 56 | 0 | 0.0 | 2.0 | 0.00 | 0.00 | 0.00 | 65 | 1011.5 |
| 20260505185027 | 56 | 61 | 0.0 | 2.0 | 0.00 | 0.00 | 0.00 | 65 | 1011.4 |
| 20260505184540 | 56 | 51 | 0.0 | 2.0 | 0.00 | 0.00 | 0.00 | 64 | 1011.3 |
| 20260505184025 | 56 | 0 | 0.0 | 2.0 | 0.00 | 0.00 | 0.00 | 63 | 1011.3 |
| 20260505183524 | 56 | 0 | 0.0 | 3.0 | 0.00 | 0.00 | 0.00 | 63 | 1011.3 |
| 20260505183040 | 57 | 120 | 0.0 | 3.0 | 0.00 | 0.00 | 0.00 | 63 | 1011.3 |
| 20260505182526 | 57 | 51 | 0.0 | 2.0 | 0.00 | 0.00 | 0.00 | 62 | 1011.3 |
| 20260505182024 | 57 | 319 | 1.0 | 3.0 | 0.00 | 0.00 | 0.00 | 62 | 1011.2 |
| 20260505181542 | 57 | 0 | 0.0 | 3.0 | 0.00 | 0.00 | 0.00 | 61 | 1011.3 |
| 20260505181026 | 57 | 71 | 1.0 | 4.0 | 0.00 | 0.00 | 0.00 | 61 | 1011.4 |
| 20260505180524 | 57 | 76 | 1.0 | 5.0 | 0.00 | 0.00 | 0.00 | 60 | 1011.3 |
| 20260505180040 | 57 | 34 | 1.0 | 5.0 | 0.00 | 0.00 | 0.00 | 58 | 1011.4 |
| 20260505175524 | 58 | 309 | 1.0 | 4.0 | 0.00 | 0.00 | 0.00 | 58 | 1011.5 |
| 20260505175024 | 58 | 26 | 1.0 | 4.0 | 0.00 | 0.00 | 0.00 | 57 | 1011.5 |
| 20260505174541 | 58 | 309 | 1.0 | 4.0 | 0.00 | 0.00 | 0.00 | 57 | 1011.5 |
| 20260505174026 | 58 | 9 | 1.0 | 4.0 | 0.00 | 0.00 | 0.00 | 56 | 1011.5 |
| 20260505173523 | 58 | 51 | 1.0 | 6.0 | 0.00 | 0.00 | 0.00 | 55 | 1011.5 |
| 20260505173041 | 59 | 22 | 1.0 | 6.0 | 0.00 | 0.00 | 0.00 | 53 | 1011.6 |
| 20260505172523 | 59 | 61 | 1.0 | 5.0 | 0.00 | 0.00 | 0.00 | 52 | 1011.6 |
| 20260505172023 | 59 | 137 | 1.0 | 5.0 | 0.00 | 0.00 | 0.00 | 53 | 1011.6 |
| 20260505171540 | 59 | 111 | 1.0 | 7.0 | 0.00 | 0.00 | 0.00 | 53 | 1011.7 |
| 20260505171027 | 59 | 93 | 2.0 | 7.0 | 0.00 | 0.00 | 0.00 | 52 | 1011.7 |
| 20260505170524 | 59 | 301 | 1.0 | 6.0 | 0.00 | 0.00 | 0.00 | 52 | 1011.6 |
| 20260505170038 | 59 | 292 | 2.0 | 6.0 | 0.00 | 0.00 | 0.00 | 52 | 1011.6 |
| 20260505165524 | 60 | 325 | 1.0 | 8.0 | 0.00 | 0.00 | 0.00 | 51 | 1011.7 |
| 20260505165024 | 60 | 120 | 3.0 | 8.0 | 0.00 | 0.00 | 0.00 | 50 | 1011.7 |
| 20260505164538 | 60 | 51 | 1.0 | 7.0 | 0.00 | 0.00 | 0.00 | 51 | 1011.6 |
| 20260505164025 | 60 | 129 | 2.0 | 10.0 | 0.00 | 0.00 | 0.00 | 51 | 1011.6 |
| 20260505163526 | 60 | 105 | 3.0 | 10.0 | 0.00 | 0.00 | 0.00 | 50 | 1011.7 |
| 20260505163043 | 60 | 0 | 2.0 | 8.0 | 0.00 | 0.00 | 0.00 | 51 | 1011.6 |
| 20260505162523 | 60 | 38 | 1.0 | 6.0 | 0.00 | 0.00 | 0.00 | 51 | 1011.7 |
| 20260505162024 | 60 | 162 | 2.0 | 5.0 | 0.00 | 0.00 | 0.00 | 52 | 1011.7 |
| 20260505161541 | 60 | 18 | 1.0 | 10.0 | 0.00 | 0.00 | 0.00 | 52 | 1011.6 |
| 20260505161026 | 60 | 22 | 2.0 | 10.0 | 0.00 | 0.00 | 0.00 | 52 | 1011.6 |
| 20260505160524 | 60 | 93 | 1.0 | 7.0 | 0.00 | 0.00 | 0.00 | 52 | 1011.5 |
| 20260505153037 | 61 | 126 | 2.0 | 7.0 | 0.00 | 0.00 | 0.00 | 50 | 1011.6 |
| 20260505152523 | 62 | 190 | 2.0 | 8.0 | 0.00 | 0.00 | 0.00 | 48 | 1011.6 |
| 20260505152027 | 62 | 162 | 1.0 | 8.0 | 0.00 | 0.00 | 0.00 | 49 | 1011.6 |
| 20260505151537 | 62 | 347 | 1.0 | 10.0 | 0.00 | 0.00 | 0.00 | 50 | 1011.6 |
| 20260505151025 | 62 | 344 | 2.0 | 10.0 | 0.00 | 0.00 | 0.00 | 49 | 1011.7 |
| 20260505150524 | 62 | 137 | 4.0 | 10.0 | 0.00 | 0.00 | 0.00 | 47 | 1011.7 |
| 20260505140524 | 62 | 78 | 2.0 | 9.0 | 0.00 | 0.00 | 0.00 | 53 | 1011.9 |
| 20260505130104 | 62 | 221 | 2.0 | 8.0 | 0.00 | 0.00 | 0.00 | 54 | 1012.0 |
| 20260505125023 | 62 | 93 | 2.0 | 9.0 | 0.00 | 0.00 | 0.00 | 55 | 1012.0 |
| 20260505124541 | 61 | 41 | 2.0 | 9.0 | 0.00 | 0.00 | 0.00 | 57 | 1012.0 |
| 20260505124023 | 61 | 319 | 1.0 | 9.0 | 0.00 | 0.00 | 0.00 | 57 | 1012.1 |
| 20260505123525 | 61 | 51 | 2.0 | 9.0 | 0.00 | 0.00 | 0.00 | 57 | 1012.0 |
| 20260505123043 | 61 | 38 | 1.0 | 9.0 | 0.00 | 0.00 | 0.00 | 57 | 1012.1 |
| 20260505122523 | 61 | 97 | 2.0 | 7.0 | 0.00 | 0.00 | 0.00 | 57 | 1012.1 |
| 20260505122024 | 62 | 68 | 2.0 | 7.0 | 0.00 | 0.00 | 0.00 | 56 | 1012.2 |
| 20260505121535 | 62 | 340 | 2.0 | 8.0 | 0.00 | 0.00 | 0.00 | 55 | 1012.1 |
| 20260505121024 | 62 | 225 | 3.0 | 8.0 | 0.00 | 0.00 | 0.00 | 54 | 1012.1 |
| 20260505120524 | 62 | 51 | 2.0 | 10.0 | 0.00 | 0.00 | 0.00 | 55 | 1012.1 |
| 20260505120039 | 61 | 48 | 2.0 | 10.0 | 0.00 | 0.00 | 0.00 | 56 | 1012.2 |
| 20260505115523 | 62 | 51 | 3.0 | 10.0 | 0.00 | 0.00 | 0.00 | 57 | 1012.1 |
| 20260505115023 | 61 | 305 | 2.0 | 8.0 | 0.00 | 0.00 | 0.00 | 59 | 1012.1 |
| 20260505114538 | 61 | 57 | 2.0 | 9.0 | 0.00 | 0.00 | 0.00 | 59 | 1012.1 |
| 20260505114024 | 61 | 24 | 2.0 | 9.0 | 0.00 | 0.00 | 0.00 | 58 | 1012.1 |
| 20260505113523 | 61 | 80 | 2.0 | 9.0 | 0.00 | 0.00 | 0.00 | 56 | 1012.2 |
| 20260505113044 | 61 | 9 | 2.0 | 9.0 | 0.00 | 0.00 | 0.00 | 59 | 1012.1 |
| 20260505112523 | 61 | 43 | 2.0 | 9.0 | 0.00 | 0.00 | 0.00 | 61 | 1012.1 |
| 20260505112023 | 60 | 300 | 2.0 | 9.0 | 0.00 | 0.00 | 0.00 | 59 | 1012.2 |
| 20260505111540 | 60 | 337 | 2.0 | 9.0 | 0.00 | 0.00 | 0.00 | 64 | 1012.1 |
| 20260505111023 | 60 | 93 | 2.0 | 9.0 | 0.00 | 0.00 | 0.00 | 65 | 1012.1 |
| 20260505110524 | 59 | 162 | 1.0 | 8.0 | 0.00 | 0.00 | 0.00 | 65 | 1012.1 |
| 20260505102023 | 60 | 93 | 3.0 | 11.0 | 0.00 | 0.00 | 0.00 | 66 | 1012.2 |
| 20260505101540 | 60 | 72 | 2.0 | 11.0 | 0.00 | 0.00 | 0.00 | 68 | 1012.1 |
| 20260505101023 | 60 | 341 | 2.0 | 9.0 | 0.00 | 0.00 | 0.00 | 66 | 1012.1 |
| 20260505100526 | 60 | 178 | 2.0 | 9.0 | 0.00 | 0.00 | 0.00 | 66 | 1012.1 |
| 20260505100037 | 60 | 265 | 2.0 | 9.0 | 0.00 | 0.00 | 0.00 | 65 | 1012.1 |
| 20260505095524 | 60 | 9 | 2.0 | 9.0 | 0.00 | 0.00 | 0.00 | 66 | 1012.1 |
| 20260505095023 | 60 | 66 | 2.0 | 9.0 | 0.00 | 0.00 | 0.00 | 69 | 1012.1 |
| 20260505094537 | 60 | 323 | 2.0 | 9.0 | 0.00 | 0.00 | 0.00 | 69 | 1012.1 |
| 20260505094023 | 60 | 268 | 2.0 | 9.0 | 0.00 | 0.00 | 0.00 | 68 | 1012.1 |
| 20260505093524 | 59 | 327 | 3.0 | 9.0 | 0.00 | 0.00 | 0.00 | 67 | 1012.1 |
| 20260505093036 | 60 | 49 | 2.0 | 9.0 | 0.00 | 0.00 | 0.00 | 66 | 1012.1 |
| 20260505092529 | 60 | 20 | 3.0 | 9.0 | 0.00 | 0.00 | 0.00 | 68 | 1012.1 |
| 20260505092023 | 60 | 46 | 3.0 | 9.0 | 0.00 | 0.00 | 0.00 | 70 | 1012.0 |
| 20260505091541 | 60 | 309 | 1.0 | 8.0 | 0.00 | 0.00 | 0.00 | 71 | 1012.2 |
| 20260505091028 | 59 | 280 | 2.0 | 13.0 | 0.00 | 0.00 | 0.00 | 70 | 1012.2 |
| 20260505090524 | 59 | 0 | 2.0 | 13.0 | 0.00 | 0.00 | 0.00 | 72 | 1012.2 |
| 20260505090041 | 59 | 9 | 3.0 | 11.0 | 0.00 | 0.00 | 0.00 | 71 | 1012.3 |
| 20260505085524 | 59 | 321 | 3.0 | 10.0 | 0.00 | 0.00 | 0.00 | 72 | 1012.4 |
| 20260505085024 | 59 | 259 | 3.0 | 10.0 | 0.00 | 0.00 | 0.00 | 74 | 1012.3 |
| 20260505084538 | 58 | 311 | 2.0 | 9.0 | 0.00 | 0.00 | 0.00 | 76 | 1012.3 |